Hourly Weather Roundup
Issued by NWS Central Illinois

Home | Current Version | Previous Version | Text Only | Print | Product List | Glossary On
Versions: 1 2 3 4 5 6 7 8 9 10 11 12 13 14 15 16 17 18 19 20 21 22 23 24 25 26 27 28 29 30 31 32 33 34 35 36 37 38 39 40 41 42 43 44 45 46 47 48 49 50
000
NZUS43 KILX 010510
HWRILX

AREA WEATHER ROUNDUP
NATIONAL WEATHER SERVICE, LINCOLN IL
1200 AM CDT FRI AUG 01 2014


CITY           SKY/WX    TMP DP  RH WIND       PRES   REMARKS
BLOOMINGTON    CLEAR     64  59  84 S3        30.09S
CHAMPAIGN      CLEAR     63  60  90 SE5       30.08F
DECATUR        CLEAR     62  58  86 CALM      30.08S
FLORA          NOT AVBL
GALESBURG      PTCLDY    62  61  95 CALM      30.07R
JACKSONVILLE   CLEAR     64  61  90 CALM      30.08R
LACON          CLEAR     64  60  88 CALM      30.06R
LAWRENCEVILLE  PTCLDY    65  63  93 CALM      30.09R
LITCHFIELD     CLEAR     66  61  82 E5        30.07S
$$


CITY           SKY/WX    TMP DP  RH WIND       PRES   REMARKS
LINCOLN        CLEAR     64  61  90 CALM      30.05S
MACOMB         PTCLDY    60  59  96 CALM      30.08S
MATTOON        CLOUDY    66  62  87 CALM      30.08R
MT CARMEL AP   CLEAR     64  63  94 CALM      30.08S
OLNEY-NOBLE AP PTCLDY    63  63 100 CALM      30.08S
PARIS          CLEAR     60  59  97 CALM      30.10S FOG
PEORIA         CLEAR     68  61  78 CALM      30.07R
PONTIAC        CLEAR     63  63 100 S3        30.07S
RANTOUL        CLEAR     65  62  87 CALM      30.09S
ROBINSON       FOG       61  61  98 CALM      30.10R VSB 1/2
SPRINGFIELD    CLEAR     64  61  90 CALM      30.07S
TAYLORVILLE    PTCLDY    63  59  88 SE3       30.08R
$$

...REGIONAL REPORTS...


CITY           SKY/WX    TMP DP  RH WIND       PRES   REMARKS
CHICAGO O`HARE CLEAR     68  57  68 SW6       30.04S
KANKAKEE       CLEAR     63  61  93 CALM      30.07S
MOLINE         CLEAR     65  61  87 CALM      30.05S
MOUNT VERNON   CLEAR     63  57  82 CALM      30.09S
PITTSFIELD     CLEAR     64  61  90 CALM      30.08S
QUINCY         CLEAR     67  60  78 SE3       30.06S
ROCKFORD       CLEAR     64  58  80 S3        30.06S
$$


CITY           SKY/WX    TMP DP  RH WIND       PRES   REMARKS
BURLINGTON     CLOUDY    68  65  90 CALM      30.06R
CEDAR RAPIDS   CLEAR     63  61  93 S3        30.05R
DES MOINES     PTCLDY    65  61  87 CALM      30.06R
KIRKSVILLE     PTCLDY    62  59  90 CALM      30.08R
OTTUMWA        MOCLDY    66  63  90 SE3       30.06R
ST LOUIS       PTCLDY    76  61  59 S6        30.07R
$$


CITY           SKY/WX    TMP DP  RH WIND       PRES   REMARKS
TERRE HAUTE    CLEAR     63  60  90 CALM      30.09R
EVANSVILLE     CLEAR     68  62  81 CALM      30.09R
INDIANAPOLIS   CLEAR     66  61  84 CALM      30.10R
LAFAYETTE      CLEAR     62  61  96 CALM      30.08R
MADISON        CLEAR     64  59  83 CALM      30.03R
MILWAUKEE      CLEAR     70  58  65 W5        30.03R
$$




USA.gov is the U.S. government's official web portal to all federal, state and local government web resources and services.